TimeEST,TemperatureF,Dew PointF,Humidity,Sea Level PressureIn,VisibilityMPH,Wind Direction,Wind SpeedMPH,Gust SpeedMPH,PrecipitationIn,Events,Conditions,WindDirDegrees,DateUTC
12:55 AM,35.4,25.9,68,30.30,10.0,SSW,9.2,-,N/A,,Clear,200,2013-01-19 05:55:00
1:55 AM,38.3,25.5,60,30.29,10.0,SSW,13.8,20.7,N/A,,Clear,200,2013-01-19 06:55:00
2:55 AM,38.8,25.7,59,30.29,10.0,SSW,15.0,-,N/A,,Clear,200,2013-01-19 07:55:00
3:55 AM,38.5,25.5,60,30.28,10.0,South,17.3,21.9,N/A,,Clear,190,2013-01-19 08:55:00
4:55 AM,38.1,25.9,61,30.26,10.0,SSW,12.7,-,N/A,,Clear,200,2013-01-19 09:55:00
5:55 AM,37.4,24.8,60,30.26,10.0,SSW,13.8,-,N/A,,Clear,200,2013-01-19 10:55:00
6:55 AM,36.9,25.0,62,30.26,10.0,SSW,11.5,-,N/A,,Clear,200,2013-01-19 11:55:00
7:55 AM,36.5,25.9,65,30.27,10.0,SSW,13.8,-,N/A,,Clear,200,2013-01-19 12:55:00
8:55 AM,38.7,26.4,61,30.27,10.0,SSW,18.4,24.2,N/A,,Clear,200,2013-01-19 13:55:00
9:55 AM,42.6,27.7,56,30.26,10.0,SSW,19.6,25.3,N/A,,Clear,200,2013-01-19 14:55:00
10:55 AM,46.0,29.1,52,30.25,10.0,SSW,17.3,24.2,N/A,,Clear,200,2013-01-19 15:55:00
11:55 AM,49.6,29.3,46,30.22,10.0,South,18.4,26.5,N/A,,Clear,190,2013-01-19 16:55:00
12:55 PM,51.4,28.6,41,30.16,10.0,SSW,20.7,27.6,N/A,,Clear,200,2013-01-19 17:55:00
1:55 PM,53.6,29.1,39,30.11,10.0,South,19.6,25.3,N/A,,Clear,180,2013-01-19 18:55:00
2:55 PM,54.9,26.8,34,30.09,10.0,SSW,17.3,25.3,N/A,,Clear,200,2013-01-19 19:55:00
3:55 PM,54.5,27.9,36,30.06,10.0,South,21.9,28.8,N/A,,Clear,190,2013-01-19 20:55:00
4:55 PM,53.2,28.4,38,30.04,10.0,South,17.3,31.1,N/A,,Clear,190,2013-01-19 21:55:00
5:55 PM,50.2,28.0,42,30.04,10.0,South,17.3,-,N/A,,Clear,190,2013-01-19 22:55:00
6:55 PM,48.9,27.9,44,30.02,10.0,South,13.8,23.0,N/A,,Clear,190,2013-01-19 23:55:00
7:55 PM,48.0,27.3,45,30.04,10.0,SSW,15.0,-,N/A,,Clear,200,2013-01-20 00:55:00
8:55 PM,46.9,26.4,45,30.06,10.0,SSW,10.4,-,N/A,,Clear,210,2013-01-20 01:55:00
9:55 PM,46.0,26.8,47,30.05,10.0,SSW,11.5,-,N/A,,Clear,200,2013-01-20 02:55:00
10:55 PM,46.2,27.9,49,30.05,10.0,SSW,12.7,-,N/A,,Clear,200,2013-01-20 03:55:00
11:55 PM,45.9,29.3,52,30.05,10.0,SW,15.0,19.6,N/A,,Clear,220,2013-01-20 04:55:00